Погода в Нимбурке

Чехия     50°11′16″N   15°02′15″E
темп.,
°C
ветер,
м/с
пор.,
м/с
влажн.,
%
обл.,
%
осадки,
мм/ч
давл.,
гПа
погр.,
м
19 мая, ср
ср1923:00+8з228956 0.1 101324
02:00+6зюз22935 0.1 101327
05:00+5з359562 0.3 101484
08:00+9сз368820 0.3 1015349
11:00+11зсз5580100 0.2 1015701
14:00+12сз567798 0.5 1014953
17:00+12сз5680100 0.8 1014804
20:00+10ссз348786 1.6 101588
20 мая, чт
чт2023:00+7сз339151 0.0 101636
02:00+6зсз229289 0.0 101730
05:00+5зсз3393100 0.0 101838
08:00+9зсз348699 0.0 1019267
11:00+14сз467144 0.7 10191267
14:00+15зсз5667100 1.7 10181298
17:00+14сз567284 1.3 10191170
20:00+11зсз33825 2.3 102045
21 мая, пт
пт2123:00+8з228877 0.0 102119
02:00+7зюз229298 0.0 102025
05:00+6ю1193100 0.0 101911
08:00+9юв3487100 0.0 1018236
11:00+15ю4666100 0.0 10161157
14:00+17юз5854100 0.0 10131891
17:00+14зюз61271100 0.2 10131321
20:00+12зюз3986100 1.0 1012430
22 мая, сб
сб2223:00+10ююз2390100 0.3 101161
02:00+10ююз2696100 1.8 1011205
05:00+10ю3697100 1.3 1009194
08:00+11зюз41090100 1.6 1010740
11:00+13зюз6977100 0.4 10101005
14:00+13зюз6871100 0.8 10101216
17:00+14юз596595 0.1 10091298
20:00+12юз410724 0.1 1009232
23 мая, вс
вс2323:00+8юз368534 0.1 101191
02:00+8юз4128448 0.1 1011309
05:00+9юз6127868 0.0 1011593
08:00+10зюз6118111 0.1 1013820
11:00+12з6868100 0.4 10151373
14:00+14з595827 0.8 10151840
17:00+15зюз565949 0.1 10161541
20:00+11зюз61182100 0.8 1017417